Regional Weather Roundup
Issued by NWS San Diego, CA

Home | Current Version | Previous Version | Text Only | Print | Product List | Glossary On
Versions: 1 2 3 4 5 6 7 8 9 10 11 12 13 14 15 16 17 18 19 20 21 22 23 24 25 26 27 28 29 30 31 32 33 34 35 36 37 38 39 40 41 42 43 44 45 46 47 48 49 50
000
ASUS46 KSGX 110910
RWRSGX

SAN DIEGO HOURLY WEATHER ROUNDUP
NATIONAL WEATHER SERVICE SAN DIEGO CA
200 AM PDT FRI JUL 11 2014

NOTE: "FAIR" INDICATES FEW OR NO CLOUDS BELOW 12,000 FEET WITH NO
SIGNIFICANT WEATHER AND/OR OBSTRUCTIONS TO VISIBILITY.

CAZ042-043-060-061-PZZ750-775-111000-

GREATER SAN DIEGO AREA

CITY           SKY/WX    TMP DP  RH WIND       PRES   REMARKS
LINDBERGH FLD  CLOUDY    71  62  73 NW5       29.96F
POINT LOMA       N/A     66  61  83 NW8         N/A
NATIONAL CITY    N/A     69  64  85 CALM      29.96F
CHULA VISTA      N/A     66  62  87 CALM      29.90F
IMPERIAL BEACH CLOUDY    70  63  78 W8        29.96S
BROWN FIELD    CLOUDY    66  61  84 CALM      29.96S
MIRAMAR MCAS   MOCLDY    67  61  81 N6        29.96F
MONTGOMERY FLD   N/A    N/A N/A N/A MISG      29.96F

$$

NORTH SAN DIEGO COUNTY

CITY           SKY/WX    TMP DP  RH WIND       PRES   REMARKS
CAMP PENDLETON CLOUDY    67  61  81 CALM      29.95F
OCEANSIDE AP   PTCLDY    66  62  87 W6        29.94F
VISTA            N/A     67  63  86 CALM      29.93F
CARLSBAD       CLOUDY    69  61  75 CALM      29.94F
DEL MAR          N/A     68  64  86 CALM      29.97F
LA JOLLA SCRIP   N/A     69  65  88 W2        29.92F
FALLBROOK        N/A     66  66  99 CALM      29.95S
ESCONDIDO        N/A     66  62  85 NW3       29.96F
SAN MARCOS       N/A     67  62  84 CALM      29.93F
POWAY            N/A     63  59  87 CALM      29.96S
R. PENASQUITOS   N/A     66  63  90 CALM      29.95F

$$

EAST SAN DIEGO COUNTY

CITY           SKY/WX    TMP DP  RH WIND       PRES   REMARKS
RAMONA         PTCLDY    58  55  90 CALM      29.97F
SANTEE LAKES     N/A     64  60  88 CALM      29.96F
GILLESPIE FLD  FAIR      64  61  88 CALM      29.98S
LA MESA          N/A     66  63  89 CALM      29.90S
JAMUL            N/A     62  59  91 CALM      29.93F
DESCANSO N       N/A     60  38  45 E1        29.81F
MT. LAGUNA OBS   N/A     58  37  45 W3        29.73F
CAMPO            N/A     56  47  71 NE6       29.99F

$$

ORANGE COUNTY AND THE LOS ANGELES BASIN

CITY           SKY/WX    TMP DP  RH WIND       PRES   REMARKS
JOHN WAYNE AP  MOCLDY    69  61  75 CALM      29.95F
LAGUNA BEACH     N/A     65  62  90 N2        29.91S
LAKE FOREST FR   N/A     63  58  85 CALM      29.85S
SANTA ANA        N/A     67  62  82 CALM      29.90F
HUNTINGTON BCH   N/A     66  63  89 W3        29.97F
LOS ALAMITOS   CLOUDY    68  62  82 NW2       29.95F
FULLERTON      MOCLDY    68  61  78 W3        29.94F
LONG BEACH     CLOUDY    67  61  81 NW5       29.95F
L.A. AP        CLOUDY    66  60  81 SW9       29.96F
L.A. DOWNTOWN  CLOUDY    67  60  78 SW3       29.95F

$$

THE INLAND EMPIRE

CITY           SKY/WX    TMP DP  RH WIND       PRES   REMARKS
CORONA         CLEAR     65  60  83 CALM      29.96F
CHINO          CLEAR     64  60  87 CALM      29.97S
ONTARIO        CLEAR     67  60  78 SW5       29.96S
RIVERSIDE AP   CLEAR     68  60  75 CALM      29.96F
RIV CYN CREST    N/A     67  66  95 CALM      29.93F
MORENO VALLEY    N/A     65  60  85 CALM      28.06F
MARCH ARB      CLEAR     64  58  80 W1        29.97F
HORSETHIEF CYN   N/A     63  50  63 SW2       29.95F
PERRIS           N/A     66  60  82 S2          N/A
MENIFEE          N/A     66  62  88 S2        30.03S
HEMET EAST       N/A     67  40  37 CALM      29.93F
FRENCH VALLEY  FAIR      63  61  94 CALM      29.97F
TEMECULA         N/A     64  61  91 CALM      29.94S

$$

SAN BERNARDINO AND RIVERSIDE COUNTY MOUNTAINS

CITY           SKY/WX    TMP DP  RH WIND       PRES   REMARKS
BIG BEAR AP    CLEAR     46  32  57 CALM      30.23S
BIG BEAR SHEA    N/A     46  33  61 CALM      29.91S
PINE COVE        N/A     57  37  46 N3        29.87F

$$

SOUTHERN DESERT INCLUDING THE COACHELLA VALLEY

CITY           SKY/WX    TMP DP  RH WIND       PRES   REMARKS
PALM SPRINGS   CLEAR     86  48  26 W5        29.82S
THOUSAND PALMS   N/A     85  51  30 NW12      29.77F
PALM DESERT      N/A     82  56  41 CALM      32.06R
THERMAL        CLEAR     87  49  26 NW14      29.75F
BLYTHE         CLEAR     85  48  27 S3        29.78F
IMPERIAL AP    CLEAR     84  43  23 W12       29.78F
EL CENTRO NAS  CLEAR     84  43  23 NW6       29.78F
YUMA AZ        CLEAR     88  42  20 W5        29.80F

$$

UPPER DESERT

CITY           SKY/WX    TMP DP  RH WIND       PRES   REMARKS
VICTORVILLE AP CLEAR     66  45  45 S3        29.99F
HESPERIA         N/A     73  44  36 W5        29.94F
APPLE VALLEY     N/A     70  44  38 CALM      30.06S
GRAY BUTTE AP  FAIR      65  44  45 SE3       29.98F
PALMDALE       CLEAR     75  41  29 SW14      29.96F
LANCASTER      CLEAR     72  42  34 SW12      29.96S
EDWARDS AFB    CLEAR     72  40  31 SW10      29.93F
DAGGETT        CLEAR     79  40  24 W12       29.91S
29 PALMS N     CLEAR     78  44  29 CALM      29.97S
NEEDLES        CLEAR     85  63  47 N8        29.83F

$$

REGIONAL REPORTS

CITY           SKY/WX    TMP DP  RH WIND       PRES   REMARKS
SANTA BARBARA  CLEAR     63  58  83 E6        29.93S
SANDBERG       CLEAR     66  42  41 S8        30.10S
MT. WILSON       N/A     59  41  51 SW6         N/A
LAS VEGAS NV   MOCLDY    80  59  48 S8        29.89F
PHOENIX AZ     PTCLDY    94  61  33 W10       29.82S
TIJUANA        CLOUDY    66  59  77 N3        29.99F

$$

OFFSHORE ISLANDS

CITY           SKY/WX    TMP DP  RH WIND       PRES   REMARKS
CATALINA ARPT  CLOUDY    59  57  93 SW8       29.98F FOG
SAN NICOLAS IS CLOUDY   N/A N/A N/A W10       29.96F

$$

MARINE AND OFFSHORE BUOY REPORTS

STATION/POSITION SKY/WX   TEMP    WIND        PRES    SWELL
                          AIR SEA DIR/SP/G            HT/PER/DIR
                          (F)     (DEG/KT/KT) (MB)    (FT/S/D)
TANNER BANKS               62 63  310/ 10/ 14 1015.2F   3/320/10
S CLEMENTE BASIN           65 69  310/  8/ 10 1014.7F   3/180/13
SO. S. ROSA ISLA           63 67  320/ 14/ 16 1014.2F   3/ 9
W. S. BARBARA CH           62 63  320/ 16/ 17 1013.9R   3/320/ 9
M. S. BARBARA CH           64 68  260/ 16/ 17 1013.7F
S. MONICA BASIN            65 70  310/  2/  6 1014.1F   3/270/ 5
S PEDRO CHANNEL               71                N/A     2/170/13
DANA POINT                    73                N/A     2/170/13
CMP PENDLETON NS              74                N/A     2/220/13
OCEANSIDE OFFSHR              72                N/A     2/200/14
TORREY PINES OTR              73                N/A     2/210/13
LA JOLLA 1                 70 74  310/  4/  6 1014.3F
MISSION BAY BUOY              74                N/A     2/210/13
SAN DIEGO BAY                 76              1014.7F
POINT LOMA SOUTH              72                N/A     2/190/13

$$




USA.gov is the U.S. government's official web portal to all federal, state and local government web resources and services.